Weather History for Cozumel, Mexico

Change the Weather History Date:

Tuesday, November 5, 2013

  Actual Average Record
Temperature  
Mean Temperature 72 °F -  
Max Temperature 77 °F 84 °F 89 °F (1996)
Min Temperature 66 °F 74 °F 62 °F (2012)
Cooling Degree Days 6    
Growing Degree Days 22 (Base 50)    
Moisture  
Dew Point 70 °F    
Average Humidity 95    
Maximum Humidity 100    
Minimum Humidity 83    
Precipitation  
Precipitation 0.45 in - - ()
Sea Level Pressure  
Sea Level Pressure 29.92 in    
Wind  
Wind Speed 4 mph ()    
Max Wind Speed 8 mph    
Max Gust Speed -    
Visibility 6.4 miles    
Events Rain , Thunderstorm    
Averages and records for this station are not official NWS values.
T = Trace of Precipitation, MM = Missing Value Source: Averaged Metar Reports

Daily Weather History Graph

Daily Weather History Graph

Search for Another Location

Airport:

Trip Planner

Search our weather history database for the weather conditions in past years. The results will help you decide how hot, cold, wet, or windy it might be!

Date:

Astronomy

Nov. 05, 2013 Rise Set
Actual Time 5:51 AM CST 5:10 PM CST
Civil Twilight 5:28 AM CST 5:33 PM CST
Nautical Twilight 5:02 AM CST 5:59 PM CST
Astronomical Twilight 4:36 AM CST 6:25 PM CST
Moon 7:56 AM CST (11/5) 7:21 PM CST (11/5)
Length of Visible Light 12h 04m
Length of Day
11h 18m
Waxing Crescent, 7% of the Moon is Illuminated
Nov 5
Waxing Crescent
Nov 9
First Quarter
Nov 17
Full
Nov 25
Last Quarter
Dec 2
New

Hourly Weather History & Observations

Time (CST) Temp. Dew Point Humidity Pressure Visibility Wind Dir Wind Speed Gust Speed Precip Events Conditions
12:40 AM 68.0 °F 68.0 °F 100% 29.94 in 7.0 mi East 5.8 mph - N/A   Overcast
1:40 AM 68.0 °F 68.0 °F 100% 29.92 in 7.0 mi East 5.8 mph - N/A   Overcast
2:40 AM 68.0 °F 68.0 °F 100% 29.93 in 7.0 mi Calm Calm - N/A   Mostly Cloudy
3:40 AM 68.0 °F 68.0 °F 100% 29.91 in 7.0 mi Calm Calm - N/A   Mostly Cloudy
4:40 AM 68.0 °F 68.0 °F 100% 29.92 in 7.0 mi SE 4.6 mph - N/A   Mostly Cloudy
5:40 AM 66.2 °F 66.2 °F 100% 29.91 in 7.0 mi ESE 3.5 mph - N/A Thunderstorm Thunderstorm
6:40 AM 68.0 °F 68.0 °F 100% 29.94 in 2.0 mi East 8.1 mph - N/A Rain , Thunderstorm Heavy Thunderstorms and Rain
7:46 AM 68.0 °F 68.0 °F 100% 29.97 in 7.0 mi East 4.6 mph - N/A   Overcast
8:41 AM 68.0 °F 68.0 °F 100% 30.01 in 7.0 mi Calm Calm - N/A   Overcast
9:13 AM 68.0 °F 68.0 °F 100% 29.98 in 1.5 mi ESE 6.9 mph - N/A Rain Rain
9:50 AM 68.0 °F 68.0 °F 100% 29.97 in 5.0 mi South 3.5 mph - N/A Rain Rain
10:50 AM 68.0 °F 68.0 °F 100% 29.99 in 6.0 mi Calm Calm - N/A   Overcast
11:46 AM 69.8 °F 69.8 °F 100% 29.93 in 6.0 mi Calm Calm - N/A   Overcast
12:44 PM 71.6 °F 71.6 °F 100% 29.91 in 7.0 mi East 5.8 mph - N/A   Mostly Cloudy
1:49 PM 75.2 °F 71.6 °F 89% 29.87 in 7.0 mi ENE 6.9 mph - N/A   Mostly Cloudy
2:47 PM 77.0 °F 71.6 °F 83% 29.91 in 7.0 mi ENE 5.8 mph - N/A   Mostly Cloudy
3:49 PM 75.2 °F 71.6 °F 89% 29.86 in 7.0 mi ENE 6.9 mph - N/A   Mostly Cloudy
4:46 PM 75.2 °F 71.6 °F 89% 29.88 in 7.0 mi NE 6.9 mph - N/A   Mostly Cloudy
5:48 PM 73.4 °F 69.8 °F 88% 29.88 in 7.0 mi NE 3.5 mph - N/A   Mostly Cloudy
6:51 PM 73.4 °F 69.8 °F 88% 29.90 in 7.0 mi NE 4.6 mph - N/A   Scattered Clouds
7:40 PM 75.2 °F 71.6 °F 89% 29.92 in 7.0 mi NE 4.6 mph - N/A   Mostly Cloudy
8:53 PM 75.2 °F 71.6 °F 89% 29.88 in 7.0 mi North 5.8 mph - N/A   Scattered Clouds
9:46 PM 73.4 °F 71.6 °F 94% 29.92 in 7.0 mi ENE 4.6 mph - N/A   Scattered Clouds
10:40 PM 73.4 °F 71.6 °F 94% 29.92 in 7.0 mi NNE 4.6 mph - N/A   Scattered Clouds
11:41 PM 73.4 °F 71.6 °F 94% 29.89 in 7.0 mi Calm Calm - N/A   Partly Cloudy